This is the latest recevied weather packets stored in our database for station/object K4AMF. If no packets are shown the sender has not sent any weather packets the latest 10 day(s).
| Time | Temp. | Humidity | Pressure | Rain* | Wind** | Luminosity | Snow |
|---|---|---|---|---|---|---|---|
| 1778165687 | 28.89° C | 68% | 1015.7 hPa | 0 mm | - | 529 W/m² | - |
| 1778165385 | 28.89° C | 68% | 1015.5 hPa | 0 mm | - | 736 W/m² | - |
| 1778165081 | 28.33° C | 70% | 1015.2 hPa | 0 mm | - | 668 W/m² | - |
| 1778164778 | 27.78° C | 71% | 1015.3 hPa | 0 mm | - | 714 W/m² | - |
| 1778164476 | 27.78° C | 71% | 1015.2 hPa | 0 mm | - | 692 W/m² | - |
| 1778164172 | 27.22° C | 72% | 1015.3 hPa | 0 mm | - | 419 W/m² | - |
| 1778163868 | 27.22° C | 72% | 1015.4 hPa | 0 mm | - | 627 W/m² | - |
| 1778163566 | 27.78° C | 72% | 1015.7 hPa | 0 mm | - | 620 W/m² | - |
| 1778163262 | 27.22° C | 72% | 1015.8 hPa | 0 mm | - | 567 W/m² | - |
| 1778162959 | 27.22° C | 73% | 1015.7 hPa | 0 mm | - | 490 W/m² | - |
| 1778162655 | 26.67° C | 73% | 1015.9 hPa | 0 mm | - | 583 W/m² | - |
| 1778162353 | 26.67° C | 74% | 1015.8 hPa | 0 mm | - | 578 W/m² | - |
| 1778162049 | 26.67° C | 75% | 1015.7 hPa | 0 mm | - | 520 W/m² | - |
| 1778161747 | 26.11° C | 76% | 1015.6 hPa | 0 mm | - | 503 W/m² | - |
| 1778161443 | 26.11° C | 76% | 1016 hPa | 0 mm | - | 497 W/m² | - |
| 1778161139 | 26.11° C | 76% | 1016 hPa | 0 mm | - | 511 W/m² | - |
| 1778160835 | 26.11° C | 76% | 1016.1 hPa | 0 mm | - | 519 W/m² | - |
| 1778160534 | 25.56° C | 78% | 1015.8 hPa | 0 mm | - | 498 W/m² | - |
| 1778160229 | 25° C | 79% | 1015.9 hPa | 0 mm | - | 473 W/m² | - |
| 1778159927 | 25° C | 79% | 1015.9 hPa | 0 mm | - | 414 W/m² | - |
| 1778159623 | 24.44° C | 81% | 1016.1 hPa | 0 mm | - | 345 W/m² | - |
| 1778159320 | 24.44° C | 81% | 1016.1 hPa | 0 mm | - | 244 W/m² | - |
| 1778159017 | 24.44° C | 81% | 1016 hPa | 0 mm | - | 284 W/m² | - |
| 1778158711 | 23.89° C | 83% | 1016.1 hPa | 0 mm | - | 172 W/m² | - |
| 1778158408 | 23.33° C | 83% | 1016.2 hPa | 0 mm | - | 131 W/m² | - |
* Rain latest hour (hover to see other rain measurements)
** Current wind speed in m/s (hover to see current wind gust speed)